Left ArrowRight Arrow

Hourly Observations for August 8, 2016

Temp ( °F °C ) Dew Point ( °F °C ) Humidity (%) Winds ( mph kmh ) Pressure ( in mb ) Visibility ( mi km ) Precip ( " mm )
12:53 am 00:53 Clear 54 12.2 48 8.9 80 80 ENE 3 6 29.91 1013 10 16 0.00 0.00
1:53 am 01:53 Clear 51 10.6 47 8.3 86 86 Calm 29.92 1013 10 16 0.00 0.00
2:53 am 02:53 Clear 53 11.7 48 8.9 83 83 SE 3 6 29.91 1013 10 16 0.00 0.00
3:53 am 03:53 Clear 49 9.4 47 8.3 93 93 Calm 29.91 1013 10 16 0.00 0.00
4:53 am 04:53 Clear 48 8.9 46 7.8 93 93 Calm 29.92 1013 10 16 0.00 0.00
5:53 am 05:53 Clear 47 8.3 45 7.2 93 93 Calm 29.93 1014 10 16 0.00 0.00
6:53 am 06:53 Sunny 48 8.9 45 7.2 89 89 Calm 29.93 1014 10 16 0.00 0.00
7:53 am 07:53 Sunny 53 11.7 48 8.9 83 83 Calm 29.93 1014 10 16 0.00 0.00
8:53 am 08:53 Sunny 53 11.7 48 8.9 83 83 SE 3 6 29.93 1013 10 16 0.00 0.00
9:53 am 09:53 Sunny 58 14.4 49 9.4 72 72 SSE 3 6 29.91 1013 10 16 0.00 0.00
10:53 am 10:53 Sunny 63 17.2 49 9.4 60 60 VRB 3 6 29.89 1012 10 16 0.00 0.00
11:53 am 11:53 Sunny 68 20 49 9.4 51 51 Calm 29.87 1012 10 16 0.00 0.00
12:53 pm 12:53 Sunny 74 23.3 48 8.9 40 40 VRB 5 7 29.84 1010 10 16 0.00 0.00
1:53 pm 13:53 Mostly Sunny 78 25.6 46 7.8 32 32 NW 6 9 29.81 1010 10 16 0.00 0.00
2:53 pm 14:53 Partly Cloudy 80 26.7 45 7.2 29 29 WNW 8 13 29.78 1009 10 16 0.00 0.00
3:53 pm 15:53 Mostly Sunny 83 28.3 43 6.1 24 24 WNW 13 20 29.77 1008 10 16 0.00 0.03
4:53 pm 16:53 Sunny 83 28.3 38 3.3 20 20 WNW 14 22 29.75 1008 10 16 0.00 0.00
5:53 pm 17:53 Sunny 80 26.7 37 2.8 21 21 NW 15 24 29.75 1008 10 16 0.00 0.00
6:53 pm 18:53 Sunny 82 27.8 39 3.9 22 22 NNW 13 20 29.75 1008 10 16 0.00 0.00
7:53 pm 19:53 Mostly Sunny 78 25.6 43 6.1 29 29 N 10 17 29.76 1008 10 16 0.00 0.00
8:53 pm 20:53 Cloudy 74 23.3 40 4.4 29 29 NNW 7 11 29.78 1009 10 16 0.00 0.00
9:42 pm 21:42 Cloudy with Nearby Thunderstorms 73 23 45 7 36 36 E 15 24 29.71 1006 10 16 0.00 0.00
9:53 pm 21:53 Cloudy 71 21.7 47 8.3 42 42 E 15 24 29.83 1010 10 16 0.00 0.00
10:53 pm 22:53 Mostly Cloudy 67 19.4 50 10 55 55 SSE 8 13 29.85 1011 10 16 0.00 0.00
11:53 pm 23:53 Clear 64 17.8 49 9.4 58 58 ENE 14 22 29.85 1011 10 16 0.00 0.00

Powered by Vaisala Xweather